Regional Weather Roundup
Issued by NWS Newport/Morehead, NC

Current Version | Previous Version | Text Only | Print | Product List | Glossary On
Versions: 1 2 3 4 5 6 7 8 9 10 11 12 13 14 15 16 17 18 19 20 21 22 23 24 25 26 27 28 29 30 31 32 33 34 35 36 37 38 39 40 41 42 43 44 45 46 47 48 49 50
000
ASUS42 KMHX 200010
RWRMHX
WEATHER ROUNDUP FOR EASTERN NORTH CAROLINA
NATIONAL WEATHER SERVICE NEWPORT/MOREHEAD CITY NC
800 PM EDT TUE AUG 19 2014

NOTE: "FAIR" INDICATES FEW OR NO CLOUDS BELOW 12,000 FEET
WITH NO SIGNIFICANT WEATHER AND/OR OBSTRUCTIONS TO VISIBILITY

NCZ015>017-031-032-045>047-102-103-200100-
NORTH COAST

CITY           SKY/WX    TMP DP  RH WIND       PRES   REMARKS
EDENTON        MOCLDY    79  73  81 CALM      29.82S
ELIZABETH CITY MOCLDY    78  74  87 N6        29.83R
KITTY HAWK     PTCLDY    78  74  88 CALM      29.80S
MANTEO         CLEAR     79  73  83 CALM      29.82R

$$

NCZ045>047-081-094-103-104-200100-
CENTRAL COAST

CITY           SKY/WX    TMP DP  RH WIND       PRES   REMARKS
FRISCO         PTCLDY    81  75  82 NW3       29.82R
SWANQUARTER      N/A     81 N/A N/A N1        29.79R

$$

NCZ095-097-098-100-101-200100-
SOUTHERN COAST

CITY           SKY/WX    TMP DP  RH WIND       PRES   REMARKS
BEAUFORT       MOCLDY    80  71  74 CALM      29.84R
CEDAR ISLAND     N/A     84 N/A N/A NW3       29.85S
JACKSONVILLE   MOCLDY    82  76  81 W6        29.83R
NEWPORT        NOT AVBL
PINEY ISLAND   PTCLDY    82  76  81 S7        29.83R
WILMINGTON     TSTM      75  73  93 N13       29.85R FOG


$$

NCZ011>013-027>030-043-044-078>080-089-090>093-098-200100-
COASTAL PLAIN

CITY           SKY/WX    TMP DP  RH WIND       PRES   REMARKS
AHOSKIE        PTCLDY    75  72  90 CALM      29.84R
CLINTON        CLOUDY    75  74  95 CALM      29.85R
ELIZABETHTOWN  DRIZZLE   75  74  97 CALM      29.84S
GOLDSBORO      CLOUDY    83  77  82 N2        29.81S
GREENVILLE     PTCLDY    79  75  89 CALM      29.86R
HAVELOCK       MOCLDY    80  75  84 S6        29.84R
KENANSVILLE    CLOUDY    77  71  81 SW5       29.85R
KINSTON        NOT AVBL
NEW BERN       CLEAR     80  75  84 CALM      29.84R
RICHLANDS      CLOUDY    82  73  74 CALM      29.83R
ROANOKE RAPIDS NOT AVBL
ROCKY MOUNT    PTCLDY    78  74  87 CALM      29.84R
WASHINGTON     CLEAR     79  73  82 CALM      29.83R
WHITEVILLE     MOCLDY    79  73  82 CALM      29.85R

$$

AMZ130-135-150-152-154-156-158-170-250-252-270-ANZ085-086-088-633-658-670-200100-
MARINE OBSERVATIONS

STATION/POSITION TIME  TEMP    WIND        PRES    WAVE   SWELL
                       AIR SEA DIR/SP/G            HT/PER HT/PER
                 (UTC) (F)     (DEG/KT/KT) (MB)    (FT/S) (FT/S)
CHESAPEAKE LIGHT 2300   76      40/ 13/ 13 1010.4
BUOY 44014       0000   77 79   20/  8/  8 1009.3    3/ 6   3/ 6
DUCK             0000   77 78  360/ 11/ 12 1008.8
2E DUCK          0000                        N/A     1/ 8
OREGON INLET     0000   79 82  360/  4/  5 1009.6
BUOY 44095       0000      81                N/A     2/ 7
20E OREGON INLET NOT AVBL
HATTERAS CG      0000   82 82  290/  6/  7 1010.1
DIAMOND BUOY     0000   80     220/  8/ 10 1009.6    3/ 7   3/ 7
CAPE LOOKOUT     2300   82     230/  8/ 12 1009.5
BEAUFORT LAB     0000   80 82   50/  2/  5 1010.0
30 SE NEW RIVER  0000   82 82  240/ 16/ 19 1009.8    5/ 7
5 SE WRIGHTSVILL 2300   80 82  230/ 12/ 14   N/A
BUOY 41002       NOT AVBL
BUOY 41004       0000   84 83  230/ 17/ 19 1010.7    5/ 6   2/ 8

$$


USA.gov is the U.S. government's official web portal to all federal, state and local government web resources and services.